CW6225 Weather Reports


Display with metric or nautical units.
time (UTC)temp
F
wind
direction
speed
MPH
gust
MPH
rain 1hr
in
rain 24hr
in
rain mn
in
humidity
%
barometer
mb
20190917230116 58 207 4.0 0.0 0.00 0.00 0.05 82 1004.3
20190917224636 58 149 5.0 0.0 0.00 0.00 0.05 80 1004.4
20190917223101 59 172 5.0 0.0 0.00 0.00 0.05 78 1004.2
20190917221648 60 209 3.0 0.0 0.00 0.00 0.05 76 1004.3
20190917220146 60 190 3.0 0.0 0.00 0.00 0.05 76 1004.2
20190917214626 60 155 6.0 0.0 0.00 0.00 0.05 76 1004.2
20190917213212 60 215 6.0 0.0 0.00 0.00 0.05 76 1004.0
20190917211612 60 222 5.0 0.0 0.00 0.00 0.05 75 1004.1
20190917210116 60 140 5.0 0.0 0.00 0.00 0.05 74 1004.2
20190917204632 60 196 5.0 0.0 0.00 0.00 0.05 73 1004.2
20190917203040 60 234 6.0 0.0 0.00 0.00 0.05 74 1004.3
20190917201603 60 196 6.0 0.0 0.00 0.00 0.05 74 1004.3
20190917200116 59 172 4.0 0.0 0.00 0.00 0.05 76 1004.3
20190917194703 59 201 5.0 0.0 0.00 0.00 0.05 76 1004.1
20190917193105 59 233 7.0 0.0 0.00 0.00 0.05 76 1004.0
20190917191619 59 179 8.0 0.0 0.00 0.00 0.05 75 1003.8
20190917190101 60 209 9.0 0.0 0.00 0.00 0.05 73 1003.5
20190917184611 59 183 10.0 0.0 0.00 0.00 0.05 73 1003.3
20190917183106 59 189 9.0 0.0 0.00 0.00 0.05 73 1003.2
20190917181605 59 198 9.0 0.0 0.00 0.00 0.05 73 1003.3
20190917180115 59 250 8.0 0.0 0.00 0.00 0.05 75 1003.1
20190917174555 59 178 11.0 0.0 0.00 0.00 0.05 76 1003.1
20190917173047 58 148 10.0 0.0 0.00 0.00 0.05 78 1003.2
20190917171541 58 188 10.0 0.0 0.00 0.00 0.05 77 1003.3
20190917170044 59 206 8.0 0.0 0.00 0.00 0.05 75 1003.3
20190917164542 59 147 10.0 0.0 0.00 0.00 0.05 73 1003.7
20190917163024 58 169 10.0 0.0 0.00 0.00 0.05 74 1003.6
20190917161559 58 170 10.0 0.0 0.00 0.00 0.05 74 1003.7
20190917160018 58 205 10.0 0.0 0.00 0.00 0.05 73 1003.5
20190917154515 58 208 9.0 0.0 0.00 0.00 0.05 75 1003.7
20190917153034 58 216 9.0 0.0 0.00 0.00 0.05 74 1003.6
20190917151516 58 191 11.0 0.0 0.00 0.00 0.05 75 1003.6
20190917150017 58 198 10.0 0.0 0.00 0.00 0.05 75 1003.7
20190917144515 58 223 9.0 0.0 0.00 0.00 0.05 77 1004.0
20190917143010 57 178 9.0 0.0 0.00 0.00 0.05 79 1004.3
20190917141518 56 188 10.0 0.0 0.00 0.00 0.05 83 1004.1
20190917140011 56 206 8.0 0.0 0.00 0.00 0.04 86 1004.1
20190917134500 56 167 10.0 0.0 0.00 0.00 0.04 86 1004.1
20190917133314 57 174 10.0 0.0 0.00 0.00 0.02 81 1003.8
20190917131719 57 206 9.0 0.0 0.00 0.00 0.01 80 1003.7
20190917130147 56 168 9.0 0.0 0.00 0.00 0.01 82 1004.0
20190917124724 56 180 9.0 0.0 0.00 0.00 0.01 83 1004.5
20190917123129 56 175 8.0 0.0 0.00 0.00 0.01 83 1004.5
20190917121626 56 192 9.0 0.0 0.00 0.00 0.01 85 1004.8
20190917120132 57 185 8.0 0.0 0.00 0.00 0.00 81 1005.2
20190917114614 57 217 8.0 0.0 0.00 0.00 0.00 79 1005.4
20190917113224 57 209 6.0 0.0 0.00 0.00 0.00 80 1005.8
20190917111724 57 194 4.0 0.0 0.00 0.00 0.00 81 1006.2
20190917110131 57 184 5.0 0.0 0.00 0.00 0.00 82 1006.3
20190917104551 57 178 4.0 0.0 0.00 0.00 0.00 83 1006.6
20190917103124 57 214 5.0 0.0 0.00 0.00 0.00 84 1006.7
20190917101602 56 175 5.0 0.0 0.00 0.00 0.00 85 1007.0
20190917100038 56 170 3.0 0.0 0.00 0.00 0.00 85 1007.1
20190917094610 56 178 6.0 0.0 0.00 0.00 0.00 85 1007.4
20190917093034 56 212 5.0 0.0 0.00 0.00 0.00 85 1007.5
20190917091532 56 151 5.0 0.0 0.00 0.00 0.00 85 1007.7
20190917090039 56 182 4.0 0.0 0.00 0.00 0.00 86 1007.8
20190917084526 56 207 4.0 0.0 0.00 0.00 0.00 86 1007.9
20190917083040 56 188 4.0 0.0 0.00 0.00 0.00 87 1008.0
20190917081524 56 225 4.0 0.0 0.00 0.00 0.00 88 1008.0
20190917080042 56 198 4.0 0.0 0.00 0.00 0.00 88 1008.1
20190917074522 56 216 5.0 0.0 0.00 0.00 0.00 88 1008.2
20190917073009 56 198 2.0 0.0 0.00 0.00 0.00 88 1008.1
20190917071508 56 197 2.0 0.0 0.00 0.00 0.00 87 1008.2
20190917070005 56 219 3.0 0.0 0.00 0.00 0.01 86 1008.1
20190917064503 56 181 2.0 0.0 0.00 0.00 0.01 85 1008.4
20190917063006 56 200 1.0 0.0 0.00 0.00 0.01 84 1008.5
20190917061753 56 204 1.0 0.0 0.00 0.00 0.01 85 1008.6
20190917060218 56 180 1.0 0.0 0.00 0.00 0.01 85 1008.7
20190917054738 56 190 1.0 0.0 0.00 0.00 0.01 85 1008.7
20190917053201 56 192 1.0 0.0 0.00 0.00 0.01 87 1008.5
20190917051711 56 151 0.0 0.0 0.00 0.00 0.01 89 1008.6
20190917050121 55 174 0.0 0.0 0.00 0.00 0.01 90 1008.6
20190917044717 55 148 0.0 0.0 0.00 0.00 0.01 89 1008.6
20190917043326 55 128 0.0 0.0 0.00 0.00 0.01 88 1008.6
20190917041725 55 133 0.0 0.0 0.00 0.00 0.01 89 1008.9
20190917040152 55 125 0.0 0.0 0.00 0.00 0.01 89 1009.0
20190917034730 55 125 0.0 0.0 0.00 0.00 0.01 89 1009.2
20190917033138 55 138 0.0 0.0 0.00 0.00 0.01 89 1009.0
20190917031715 55 149 0.0 0.0 0.00 0.00 0.01 89 1008.9
20190917030227 55 149 0.0 0.0 0.00 0.00 0.01 89 1008.9
20190917024635 55 149 0.0 0.0 0.00 0.00 0.01 88 1009.2
20190917023221 55 149 0.0 0.0 0.00 0.00 0.01 87 1009.2
20190917021646 56 149 0.0 0.0 0.00 0.00 0.01 87 1009.2
20190917020229 56 259 0.0 0.0 0.00 0.00 0.01 86 1009.2
20190917014722 57 259 0.0 0.0 0.00 0.00 0.01 86 1009.3
20190917013225 57 259 0.0 0.0 0.00 0.00 0.01 85 1009.3
20190917011641 57 259 0.0 0.0 0.00 0.00 0.01 84 1009.3
20190917010118 57 259 0.0 0.0 0.00 0.00 0.01 82 1009.3
20190917004627 58 259 0.0 0.0 0.00 0.00 0.01 79 1009.3
20190917003321 59 259 0.0 0.0 0.00 0.00 0.01 80 1009.1
20190917001741 59 259 0.0 0.0 0.00 0.00 0.01 80 1009.1
20190917000120 58 246 0.0 0.0 0.00 0.00 0.01 83 1009.0
20190916234644 56 246 0.0 0.0 0.00 0.00 0.01 86 1009.1
20190916233201 56 246 0.0 0.0 0.00 0.00 0.01 87 1009.1
20190916231743 56 246 0.0 0.0 0.00 0.00 0.01 86 1009.1